AIC219 VABB-VRMM

Flight info

Callsign AIC219
Flight time 2h 31m
Altitude 37000
Route VEVAK2AXMABTA/27 MABTA W15 MML/N0489F380 DCT AKLON DCT OSERA DCT PATLO PATLO1A
Aircraft B77W/H-SDE1E2E3FGHIJ2J3J4J5M1RWXY/LB1D1

Departure

Time 2026-05-04 11:33
Airport Chhatrapati Shivaji Maharaj International Airport (VABB)

Arrival

Time 2026-05-04 14:04
Airport Velana International Airport (VRMM)
Time Latitude Longitude Altitude Speed Heading
2026-05-04 11:16 19.09458 72.87586 27 ft 0 kts 31°
2026-05-04 11:22 19.09455 72.87584 27 ft 2 kts 31°
2026-05-04 11:22 19.09441 72.87575 48 ft 2 kts 32°
2026-05-04 11:23 19.09427 72.87565 47 ft 2 kts 35°
2026-05-04 11:23 19.09414 72.87555 52 ft 2 kts 39°
2026-05-04 11:24 19.09395 72.87507 46 ft 0 kts 127°
2026-05-04 11:27 19.09059 72.87947 50 ft 19 kts 90°
2026-05-04 11:28 19.09046 72.88036 50 ft 11 kts 140°
2026-05-04 11:28 19.09012 72.88048 49 ft 0 kts 173°
2026-05-04 11:29 19.09006 72.88049 50 ft 2 kts 173°
2026-05-04 11:29 19.08980 72.88051 48 ft 6 kts 176°
2026-05-04 11:29 19.08926 72.88050 49 ft 8 kts 181°
2026-05-04 11:29 19.08887 72.88013 46 ft 9 kts 269°
2026-05-04 11:31 19.08887 72.88008 46 ft 0 kts 270°
2026-05-04 11:33 19.08858 72.81320 2114 ft 217 kts 266°
2026-05-04 11:33 19.08807 72.79633 2540 ft 237 kts 268°
2026-05-04 11:33 19.08765 72.77875 3346 ft 240 kts 268°
2026-05-04 11:34 19.08729 72.76179 4491 ft 226 kts 270°
2026-05-04 11:34 19.08653 72.74533 5298 ft 226 kts 261°
2026-05-04 11:34 19.07931 72.73024 5929 ft 238 kts 229°
2026-05-04 11:34 19.06521 72.72074 6642 ft 248 kts 200°
2026-05-04 11:35 19.04795 72.71959 7208 ft 261 kts 168°
2026-05-04 11:35 19.03208 72.72875 7902 ft 262 kts 137°
2026-05-04 11:35 19.01838 72.74094 8452 ft 268 kts 148°
2026-05-04 11:35 19.00190 72.74895 9267 ft 262 kts 166°
2026-05-04 11:36 18.98367 72.75121 9915 ft 266 kts 182°
2026-05-04 11:36 18.96512 72.74998 10597 ft 267 kts 184°
2026-05-04 11:36 18.94646 72.74871 11332 ft 269 kts 184°
2026-05-04 11:36 18.92763 72.74766 12123 ft 271 kts 184°
2026-05-04 11:37 18.90864 72.74680 12961 ft 274 kts 184°
2026-05-04 11:37 18.88950 72.74607 13786 ft 276 kts 184°
2026-05-04 11:37 18.87012 72.74543 14456 ft 284 kts 184°
2026-05-04 11:37 18.84978 72.74480 14712 ft 309 kts 184°
2026-05-04 11:38 18.82790 72.74419 15322 ft 320 kts 183°
2026-05-04 11:38 18.80531 72.74359 16070 ft 327 kts 183°
2026-05-04 11:38 18.78244 72.74312 16907 ft 330 kts 180°
2026-05-04 11:38 18.75966 72.74733 17623 ft 337 kts 165°
2026-05-04 11:39 18.73666 72.75523 17943 ft 360 kts 163°
2026-05-04 11:39 18.71207 72.76416 18132 ft 385 kts 162°
2026-05-04 11:40 18.54207 72.82453 20908 ft 449 kts 163°
2026-05-04 11:41 18.51214 72.83492 21527 ft 454 kts 163°
2026-05-04 11:41 18.48199 72.84536 22106 ft 459 kts 163°
2026-05-04 11:41 18.45149 72.85593 22676 ft 463 kts 163°
2026-05-04 11:41 18.42076 72.86657 23245 ft 467 kts 164°
2026-05-04 11:42 18.38972 72.87732 23702 ft 472 kts 163°
2026-05-04 11:42 18.35834 72.88818 24128 ft 476 kts 163°
2026-05-04 11:42 18.32675 72.89912 24549 ft 480 kts 163°
2026-05-04 11:42 18.29528 72.91001 24965 ft 484 kts 163°
2026-05-04 11:43 18.26307 72.92116 25388 ft 487 kts 163°
2026-05-04 11:43 18.23030 72.93249 25789 ft 491 kts 163°
2026-05-04 11:43 18.19772 72.94376 26169 ft 495 kts 163°
2026-05-04 11:43 18.16528 72.95497 26554 ft 499 kts 163°
2026-05-04 11:44 18.13212 72.96643 26926 ft 502 kts 163°
2026-05-04 11:44 18.09876 72.97795 27297 ft 506 kts 163°
2026-05-04 11:44 18.06526 72.98977 27649 ft 509 kts 161°
2026-05-04 11:44 18.03180 73.00281 27994 ft 513 kts 160°
2026-05-04 11:45 17.99842 73.01655 28318 ft 516 kts 159°
2026-05-04 11:45 17.96494 73.03055 28635 ft 519 kts 159°
2026-05-04 11:45 17.93125 73.04460 28929 ft 522 kts 159°
2026-05-04 11:45 17.89736 73.05859 29212 ft 525 kts 160°
2026-05-04 11:46 17.86327 73.07251 29489 ft 527 kts 160°
2026-05-04 11:46 17.82892 73.08642 29796 ft 529 kts 160°
2026-05-04 11:46 17.79502 73.10010 30126 ft 528 kts 160°
2026-05-04 11:46 17.76035 73.11406 30522 ft 526 kts 160°
2026-05-04 11:47 17.72633 73.12775 30985 ft 522 kts 160°
2026-05-04 11:47 17.69290 73.14122 31436 ft 519 kts 160°
2026-05-04 11:47 17.65919 73.15480 31890 ft 517 kts 160°
2026-05-04 11:47 17.62560 73.16833 32347 ft 515 kts 160°
2026-05-04 11:48 17.59225 73.18176 32803 ft 512 kts 160°
2026-05-04 11:48 17.55912 73.19510 33267 ft 510 kts 161°
2026-05-04 11:48 17.52599 73.20843 33717 ft 508 kts 161°
2026-05-04 11:48 17.49305 73.22168 34118 ft 506 kts 161°
2026-05-04 11:49 17.46017 73.23491 34458 ft 505 kts 161°
2026-05-04 11:49 17.42733 73.24811 34789 ft 504 kts 161°
2026-05-04 11:49 17.39459 73.26126 35135 ft 503 kts 161°
2026-05-04 11:49 17.36194 73.27437 35487 ft 502 kts 161°
2026-05-04 11:50 17.32927 73.28749 35814 ft 502 kts 161°
2026-05-04 11:50 17.29708 73.30041 36133 ft 501 kts 161°
2026-05-04 11:50 17.26459 73.31344 36468 ft 500 kts 161°
2026-05-04 11:50 17.23214 73.32646 36755 ft 500 kts 161°
2026-05-04 11:51 17.19945 73.33957 36795 ft 504 kts 161°
2026-05-04 11:51 17.13384 73.36563 36824 ft 501 kts 163°
2026-05-04 11:52 17.06718 73.38473 36835 ft 494 kts 169°
2026-05-04 11:52 17.00006 73.40037 36839 ft 494 kts 169°
2026-05-04 11:53 16.93314 73.41664 36836 ft 494 kts 168°
2026-05-04 11:53 16.86613 73.43378 36836 ft 495 kts 168°
2026-05-04 11:55 16.59838 73.50284 36847 ft 497 kts 168°
2026-05-04 11:56 16.53126 73.52009 36844 ft 497 kts 168°
2026-05-04 11:56 16.46405 73.53735 36842 ft 497 kts 168°
2026-05-04 11:57 16.39732 73.55448 36844 ft 496 kts 168°
2026-05-04 11:57 16.33022 73.57159 36848 ft 496 kts 168°
2026-05-04 11:58 16.26320 73.58841 36846 ft 495 kts 168°
2026-05-04 11:58 16.19619 73.60521 36845 ft 495 kts 168°
2026-05-04 11:59 16.12928 73.62202 36843 ft 494 kts 168°
2026-05-04 11:59 16.06249 73.63879 36835 ft 493 kts 168°
2026-05-04 12:00 15.99574 73.65555 36833 ft 493 kts 168°
2026-05-04 12:00 15.92944 73.67217 36835 ft 492 kts 168°
2026-05-04 12:01 15.86279 73.68885 36831 ft 492 kts 168°
2026-05-04 12:02 15.62902 73.73993 36817 ft 489 kts 174°
2026-05-04 12:03 15.56144 73.74818 36806 ft 489 kts 175°
2026-05-04 12:03 15.49377 73.75664 36806 ft 489 kts 174°
2026-05-04 12:04 15.42618 73.76540 36803 ft 489 kts 174°
2026-05-04 12:04 15.35910 73.77421 36803 ft 488 kts 174°
2026-05-04 12:05 15.29167 73.78307 36802 ft 488 kts 174°
2026-05-04 12:05 15.22421 73.79191 36799 ft 487 kts 174°
2026-05-04 12:06 15.15693 73.80071 36800 ft 487 kts 174°
2026-05-04 12:06 15.10090 73.80804 36800 ft 486 kts 174°
2026-05-04 12:07 15.02279 73.81825 36801 ft 486 kts 174°
2026-05-04 12:07 14.95557 73.82702 36801 ft 486 kts 174°
2026-05-04 12:08 14.88874 73.83575 36800 ft 486 kts 174°
2026-05-04 12:08 14.82162 73.84450 36800 ft 486 kts 174°
2026-05-04 12:09 14.76577 73.85179 36800 ft 486 kts 174°
2026-05-04 12:09 14.69853 73.86054 36799 ft 486 kts 174°
2026-05-04 12:10 14.63129 73.86929 36793 ft 486 kts 174°
2026-05-04 12:10 14.56456 73.87798 36797 ft 486 kts 174°
2026-05-04 12:11 14.49726 73.88674 36797 ft 487 kts 174°
2026-05-04 12:11 14.42993 73.89548 36799 ft 487 kts 174°
2026-05-04 12:12 14.36270 73.90422 36801 ft 487 kts 174°
2026-05-04 12:12 14.29590 73.91290 36797 ft 487 kts 174°
2026-05-04 12:14 14.02743 73.94769 36796 ft 484 kts 174°
2026-05-04 12:15 13.96058 73.95634 36796 ft 484 kts 174°
2026-05-04 12:15 13.89364 73.96500 36794 ft 484 kts 174°
2026-05-04 12:16 13.82729 73.97358 36803 ft 483 kts 174°
2026-05-04 12:16 13.76053 73.98220 36799 ft 483 kts 174°
2026-05-04 12:17 13.69382 73.99081 36799 ft 483 kts 174°
2026-05-04 12:17 13.62700 73.99944 36795 ft 483 kts 174°
2026-05-04 12:18 13.56030 74.00804 36798 ft 483 kts 174°
2026-05-04 12:18 13.49340 74.01667 36798 ft 484 kts 174°
2026-05-04 12:19 13.42699 74.02522 36800 ft 484 kts 174°
2026-05-04 12:19 13.36016 74.03382 36798 ft 484 kts 174°
2026-05-04 12:20 13.29323 74.04244 36796 ft 484 kts 174°
2026-05-04 12:20 13.22626 74.05105 36797 ft 484 kts 174°
2026-05-04 12:21 13.15965 74.05962 36800 ft 485 kts 174°
2026-05-04 12:21 13.09266 74.06822 36798 ft 484 kts 174°
2026-05-04 12:22 13.02563 74.07683 36797 ft 484 kts 174°
2026-05-04 12:22 12.95878 74.08541 36802 ft 484 kts 174°
2026-05-04 12:23 12.89188 74.09399 36803 ft 484 kts 174°
2026-05-04 12:23 12.82549 74.10250 36798 ft 484 kts 174°
2026-05-04 12:24 12.75877 74.11105 36798 ft 483 kts 174°
2026-05-04 12:24 12.69190 74.11962 36802 ft 483 kts 174°
2026-05-04 12:25 12.62512 74.12817 36802 ft 482 kts 174°
2026-05-04 12:25 12.55853 74.13668 36803 ft 482 kts 174°
2026-05-04 12:26 12.49208 74.14518 36802 ft 481 kts 174°
2026-05-04 12:26 12.42596 74.15363 36803 ft 481 kts 174°
2026-05-04 12:27 12.35947 74.16212 36807 ft 480 kts 174°
2026-05-04 12:27 12.29320 74.17058 36805 ft 480 kts 174°
2026-05-04 12:28 12.22677 74.17906 36808 ft 480 kts 174°
2026-05-04 12:28 12.16033 74.18753 36808 ft 481 kts 174°
2026-05-04 12:29 12.09386 74.19600 36808 ft 482 kts 174°
2026-05-04 12:29 12.02774 74.20442 36807 ft 482 kts 174°
2026-05-04 12:30 11.96104 74.21292 36811 ft 482 kts 174°
2026-05-04 12:30 11.89440 74.22140 36803 ft 482 kts 174°
2026-05-04 12:31 11.82785 74.22987 36807 ft 482 kts 174°
2026-05-04 12:31 11.76125 74.23834 36808 ft 482 kts 174°
2026-05-04 12:32 11.66177 74.25098 36810 ft 482 kts 174°
2026-05-04 12:33 11.59515 74.25944 36809 ft 482 kts 174°
2026-05-04 12:33 11.52861 74.26789 36812 ft 481 kts 174°
2026-05-04 12:34 11.46222 74.27631 36810 ft 481 kts 174°
2026-05-04 12:34 11.39622 74.28468 36813 ft 480 kts 173°
2026-05-04 12:35 11.32992 74.29308 36818 ft 479 kts 173°
2026-05-04 12:35 11.26365 74.30148 36815 ft 479 kts 173°
2026-05-04 12:36 11.19744 74.30987 36817 ft 479 kts 173°
2026-05-04 12:36 11.13133 74.31823 36816 ft 478 kts 173°
2026-05-04 12:37 11.06521 74.32660 36816 ft 478 kts 173°
2026-05-04 12:37 10.99955 74.33490 36816 ft 478 kts 173°
2026-05-04 12:38 10.93347 74.34326 36818 ft 478 kts 173°
2026-05-04 12:38 10.86735 74.35161 36819 ft 478 kts 173°
2026-05-04 12:39 10.80135 74.35995 36819 ft 478 kts 173°
2026-05-04 12:39 10.73528 74.36829 36823 ft 478 kts 173°
2026-05-04 12:40 10.66919 74.37663 36823 ft 478 kts 173°
2026-05-04 12:40 10.60358 74.38490 36823 ft 478 kts 173°
2026-05-04 12:41 10.53746 74.39324 36822 ft 478 kts 173°
2026-05-04 12:41 10.47135 74.40157 36823 ft 478 kts 173°
2026-05-04 12:42 10.40529 74.40989 36830 ft 478 kts 173°
2026-05-04 12:42 10.33925 74.41821 36825 ft 478 kts 173°
2026-05-04 12:43 10.27323 74.42651 36826 ft 478 kts 173°
2026-05-04 12:43 10.20715 74.43483 36823 ft 478 kts 173°
2026-05-04 12:44 10.14104 74.44314 36823 ft 478 kts 173°
2026-05-04 12:44 10.07541 74.45139 36829 ft 478 kts 173°
2026-05-04 12:45 10.00927 74.45970 36830 ft 478 kts 173°
2026-05-04 12:45 9.94323 74.46800 36830 ft 478 kts 173°
2026-05-04 12:46 9.87711 74.47630 36830 ft 478 kts 173°
2026-05-04 12:46 9.81143 74.48454 36829 ft 478 kts 173°
2026-05-04 12:47 9.74550 74.49281 36832 ft 478 kts 173°
2026-05-04 12:47 9.67949 74.50109 36836 ft 478 kts 173°
2026-05-04 12:48 9.61367 74.50934 36837 ft 478 kts 173°
2026-05-04 12:48 9.54738 74.51765 36837 ft 478 kts 173°
2026-05-04 12:49 9.48135 74.52591 36836 ft 478 kts 173°
2026-05-04 12:49 9.41571 74.53413 36837 ft 478 kts 173°
2026-05-04 12:50 9.34958 74.54241 36841 ft 478 kts 173°
2026-05-04 12:50 9.28342 74.55069 36837 ft 478 kts 173°
2026-05-04 12:51 9.21776 74.55890 36843 ft 478 kts 173°
2026-05-04 12:51 9.15158 74.56717 36840 ft 478 kts 173°
2026-05-04 12:52 9.08547 74.57543 36842 ft 478 kts 173°
2026-05-04 12:52 9.01934 74.58369 36841 ft 479 kts 173°
2026-05-04 12:53 8.95323 74.59195 36843 ft 479 kts 172°
2026-05-04 12:53 8.89828 74.59881 36840 ft 479 kts 172°
2026-05-04 12:54 8.82134 74.60841 36843 ft 479 kts 172°
2026-05-04 12:54 8.75516 74.61666 36842 ft 479 kts 172°
2026-05-04 12:55 8.70018 74.62352 36840 ft 479 kts 172°
2026-05-04 12:55 8.63401 74.63177 36840 ft 479 kts 172°
2026-05-04 12:56 8.56788 74.64001 36841 ft 479 kts 172°
2026-05-04 12:56 8.50165 74.64826 36844 ft 479 kts 172°
2026-05-04 12:57 8.43556 74.65649 36843 ft 479 kts 172°
2026-05-04 12:57 8.36945 74.66472 36846 ft 479 kts 172°
2026-05-04 12:58 8.30334 74.67294 36847 ft 478 kts 172°
2026-05-04 12:58 8.23728 74.68116 36848 ft 478 kts 172°
2026-05-04 12:59 8.17124 74.68937 36851 ft 478 kts 172°
2026-05-04 12:59 8.10560 74.69753 36854 ft 478 kts 172°
2026-05-04 13:00 8.03945 74.70575 36857 ft 477 kts 172°
2026-05-04 13:00 7.97345 74.71395 36855 ft 477 kts 172°
2026-05-04 13:01 7.90755 74.72214 36859 ft 477 kts 172°
2026-05-04 13:01 7.84206 74.73027 36858 ft 477 kts 172°
2026-05-04 13:02 7.77623 74.73844 36865 ft 476 kts 172°
2026-05-04 13:02 7.71045 74.74660 36870 ft 476 kts 172°
2026-05-04 13:03 7.64466 74.75476 36864 ft 476 kts 172°
2026-05-04 13:03 7.57873 74.76293 36867 ft 476 kts 172°
2026-05-04 13:04 7.51295 74.77109 36869 ft 476 kts 172°
2026-05-04 13:04 7.44745 74.77920 36868 ft 476 kts 172°
2026-05-04 13:05 7.38173 74.78735 36871 ft 476 kts 172°
2026-05-04 13:05 7.31584 74.79551 36870 ft 477 kts 172°
2026-05-04 13:06 7.24999 74.80366 36871 ft 477 kts 172°
2026-05-04 13:06 7.18409 74.81182 36868 ft 477 kts 172°
2026-05-04 13:07 7.11816 74.81997 36872 ft 477 kts 172°
2026-05-04 13:07 7.05224 74.82813 36875 ft 477 kts 172°
2026-05-04 13:08 6.98634 74.83628 36876 ft 477 kts 172°
2026-05-04 13:08 6.92034 74.84444 36874 ft 477 kts 172°
2026-05-04 13:09 6.85475 74.85254 36877 ft 478 kts 172°
2026-05-04 13:09 6.78872 74.86070 36871 ft 478 kts 172°
2026-05-04 13:10 6.72269 74.86886 36871 ft 478 kts 172°
2026-05-04 13:10 6.65654 74.87703 36872 ft 478 kts 172°
2026-05-04 13:11 6.59048 74.88518 36872 ft 479 kts 172°
2026-05-04 13:11 6.52425 74.89336 36872 ft 479 kts 172°
2026-05-04 13:12 6.45801 74.90153 36871 ft 479 kts 172°
2026-05-04 13:12 6.39221 74.90965 36871 ft 479 kts 172°
2026-05-04 13:13 6.32584 74.91783 36871 ft 480 kts 172°
2026-05-04 13:13 6.25955 74.92601 36874 ft 480 kts 172°
2026-05-04 13:14 6.19323 74.93419 36874 ft 480 kts 172°
2026-05-04 13:14 6.12679 74.94237 36872 ft 480 kts 172°
2026-05-04 13:15 6.06039 74.95056 36874 ft 481 kts 172°
2026-05-04 13:15 6.02709 74.95212 36864 ft 480 kts 183°
2026-05-04 13:15 5.99401 74.94702 36879 ft 481 kts 193°
2026-05-04 13:16 5.93288 74.92107 36886 ft 483 kts 209°
2026-05-04 13:16 5.87503 74.88646 36873 ft 485 kts 210°
2026-05-04 13:17 5.81703 74.85155 36878 ft 487 kts 210°
2026-05-04 13:17 5.75855 74.81703 36876 ft 488 kts 209°
2026-05-04 13:18 5.69985 74.78276 36876 ft 488 kts 209°
2026-05-04 13:18 5.64091 74.74844 36878 ft 489 kts 209°
2026-05-04 13:19 5.58197 74.71410 36878 ft 489 kts 209°
2026-05-04 13:19 5.52526 74.68103 36874 ft 489 kts 209°
2026-05-04 13:20 5.46642 74.64674 36878 ft 489 kts 209°
2026-05-04 13:20 5.40792 74.61264 36879 ft 488 kts 209°
2026-05-04 13:21 5.34920 74.57842 36881 ft 488 kts 209°
2026-05-04 13:21 5.29057 74.54427 36881 ft 487 kts 209°
2026-05-04 13:21 5.26127 74.52721 36777 ft 488 kts 209°
2026-05-04 13:22 5.23167 74.50998 36135 ft 495 kts 209°
2026-05-04 13:22 5.20190 74.49264 35422 ft 494 kts 209°
2026-05-04 13:22 5.17204 74.47526 34552 ft 497 kts 209°
2026-05-04 13:22 5.14207 74.45781 33622 ft 500 kts 209°
2026-05-04 13:23 5.11188 74.44024 32601 ft 504 kts 209°
2026-05-04 13:23 5.08149 74.42255 31614 ft 506 kts 209°
2026-05-04 13:23 5.05093 74.40477 30600 ft 509 kts 210°
2026-05-04 13:23 5.02060 74.38712 29868 ft 507 kts 210°
2026-05-04 13:24 4.99017 74.36941 29051 ft 503 kts 210°
2026-05-04 13:24 4.95997 74.35183 28320 ft 498 kts 210°
2026-05-04 13:24 4.93012 74.33447 27625 ft 493 kts 210°
2026-05-04 13:25 4.87128 74.30024 26288 ft 484 kts 210°
2026-05-04 13:25 4.84228 74.28338 25626 ft 480 kts 210°
2026-05-04 13:25 4.81349 74.26664 24955 ft 476 kts 210°
2026-05-04 13:25 4.78521 74.25020 24309 ft 473 kts 210°
2026-05-04 13:26 4.75686 74.23372 23660 ft 470 kts 210°
2026-05-04 13:26 4.72868 74.21734 22922 ft 467 kts 210°
2026-05-04 13:26 4.70074 74.20110 22233 ft 462 kts 210°
2026-05-04 13:26 4.67308 74.18502 21588 ft 457 kts 210°
2026-05-04 13:27 4.64570 74.16911 20956 ft 452 kts 211°
2026-05-04 13:27 4.61856 74.15334 20342 ft 447 kts 211°
2026-05-04 13:27 4.59183 74.13781 19734 ft 443 kts 211°
2026-05-04 13:27 4.56527 74.12238 19115 ft 439 kts 211°
2026-05-04 13:28 4.53889 74.10706 18512 ft 436 kts 211°
2026-05-04 13:28 4.51278 74.09189 17861 ft 433 kts 211°
2026-05-04 13:28 4.48709 74.07696 17215 ft 429 kts 211°
2026-05-04 13:28 4.46141 74.06204 16594 ft 425 kts 211°
2026-05-04 13:29 4.43591 74.04724 15999 ft 421 kts 211°
2026-05-04 13:29 4.41078 74.03266 15400 ft 409 kts 211°
2026-05-04 13:29 4.38673 74.01870 14824 ft 389 kts 211°
2026-05-04 13:29 4.36381 74.00540 14275 ft 373 kts 211°
2026-05-04 13:30 4.34162 73.99251 13788 ft 367 kts 211°
2026-05-04 13:30 4.31933 73.97955 13203 ft 376 kts 211°
2026-05-04 13:30 4.29642 73.96624 12651 ft 385 kts 211°
2026-05-04 13:30 4.27307 73.95268 12120 ft 388 kts 211°
2026-05-04 13:31 4.24979 73.93917 11606 ft 386 kts 211°
2026-05-04 13:31 4.22662 73.92572 11094 ft 383 kts 211°
2026-05-04 13:31 4.20394 73.91257 10939 ft 370 kts 211°
2026-05-04 13:31 4.18207 73.89989 10775 ft 358 kts 211°
2026-05-04 13:32 4.16083 73.88757 10629 ft 346 kts 211°
2026-05-04 13:32 4.14056 73.87580 10467 ft 336 kts 211°
2026-05-04 13:32 4.12067 73.86426 10330 ft 325 kts 211°
2026-05-04 13:32 4.10761 73.85668 10236 ft 319 kts 211°
2026-05-04 13:33 4.10364 73.85438 10209 ft 317 kts 211°
2026-05-04 13:33 4.08590 73.84408 10089 ft 308 kts 211°
2026-05-04 13:33 4.06756 73.83343 9889 ft 302 kts 211°
2026-05-04 13:33 4.04959 73.82301 9552 ft 293 kts 211°
2026-05-04 13:34 4.03240 73.81304 9197 ft 279 kts 212°
2026-05-04 13:34 4.01593 73.80348 8878 ft 271 kts 212°
2026-05-04 13:34 3.99965 73.79403 8579 ft 271 kts 212°
2026-05-04 13:34 3.98339 73.78460 8326 ft 268 kts 212°
2026-05-04 13:35 3.96734 73.77518 7968 ft 264 kts 215°
2026-05-04 13:35 3.94927 73.74570 7371 ft 253 kts 261°
2026-05-04 13:35 3.94839 73.72811 7100 ft 254 kts 269°
2026-05-04 13:36 3.94866 73.71024 6803 ft 257 kts 270°
2026-05-04 13:36 3.94891 73.69234 6505 ft 258 kts 269°
2026-05-04 13:36 3.94903 73.67435 6238 ft 257 kts 269°
2026-05-04 13:36 3.94909 73.65654 5949 ft 251 kts 269°
2026-05-04 13:37 3.94913 73.63917 5578 ft 247 kts 269°
2026-05-04 13:37 3.94912 73.62200 5271 ft 247 kts 269°
2026-05-04 13:37 3.94910 73.60490 5006 ft 248 kts 269°
2026-05-04 13:37 3.94908 73.59358 4889 ft 242 kts 268°
2026-05-04 13:38 3.94905 73.57131 4793 ft 238 kts 269°
2026-05-04 13:38 3.95021 73.55497 4681 ft 233 kts 284°
2026-05-04 13:38 3.95874 73.54163 4520 ft 233 kts 317°
2026-05-04 13:38 3.97352 73.53501 4446 ft 230 kts 345°
2026-05-04 13:39 3.98890 73.53267 4418 ft 223 kts 349°
2026-05-04 13:39 4.00402 73.53131 4358 ft 215 kts 353°
2026-05-04 13:39 4.01882 73.53098 4255 ft 209 kts 356°
2026-05-04 13:39 4.03303 73.53099 4092 ft 199 kts 356°
2026-05-04 13:40 4.04685 73.53100 4050 ft 198 kts 356°
2026-05-04 13:40 4.05620 73.53100 4020 ft 200 kts 356°
2026-05-04 13:40 4.07470 73.53101 4011 ft 202 kts 356°
2026-05-04 13:40 4.08415 73.53101 3998 ft 197 kts 356°
2026-05-04 13:41 4.09712 73.53102 3970 ft 176 kts 356°
2026-05-04 13:41 4.10880 73.53102 3990 ft 165 kts 355°
2026-05-04 13:41 4.12006 73.53100 3990 ft 163 kts 355°
2026-05-04 13:42 4.14280 73.53123 3817 ft 161 kts 356°
2026-05-04 13:42 4.15398 73.53109 3377 ft 160 kts 353°
2026-05-04 13:42 4.16500 73.53049 2946 ft 157 kts 355°
2026-05-04 13:42 4.17589 73.53049 2490 ft 156 kts 354°
2026-05-04 13:43 4.18674 73.53025 2061 ft 159 kts 354°
2026-05-04 13:43 4.19892 73.52970 2508 ft 181 kts 352°
2026-05-04 13:43 4.21017 73.52910 4410 ft 140 kts 353°
2026-05-04 13:43 4.22112 73.52906 5366 ft 192 kts 358°
2026-05-04 13:44 4.23718 73.52950 5024 ft 251 kts 359°
2026-05-04 13:44 4.25435 73.53022 4799 ft 247 kts 360°
2026-05-04 13:44 4.27178 73.53082 4512 ft 257 kts 359°
2026-05-04 13:44 4.28997 73.53117 4306 ft 264 kts 358°
2026-05-04 13:45 4.30824 73.53136 4163 ft 260 kts 358°
2026-05-04 13:45 4.32631 73.53148 4095 ft 259 kts 357°
2026-05-04 13:45 4.34454 73.53154 4048 ft 262 kts 358°
2026-05-04 13:45 4.36249 73.53282 3997 ft 260 kts 14°
2026-05-04 13:46 4.37814 73.54218 4002 ft 265 kts 46°
2026-05-04 13:46 4.38699 73.55817 4013 ft 267 kts 76°
2026-05-04 13:46 4.38735 73.57649 4009 ft 265 kts 105°
2026-05-04 13:46 4.37900 73.59260 4001 ft 257 kts 136°
2026-05-04 13:47 4.36439 73.60212 4014 ft 256 kts 164°
2026-05-04 13:47 4.34689 73.60436 4003 ft 254 kts 188°
2026-05-04 13:47 4.32940 73.60164 4002 ft 255 kts 192°
2026-05-04 13:47 4.31205 73.59839 4005 ft 254 kts 193°
2026-05-04 13:48 4.29467 73.59505 4011 ft 254 kts 193°
2026-05-04 13:48 4.27726 73.59172 4004 ft 255 kts 193°
2026-05-04 13:48 4.25984 73.58842 4006 ft 255 kts 193°
2026-05-04 13:48 4.24241 73.58514 4000 ft 254 kts 193°
2026-05-04 13:49 4.22507 73.58191 3992 ft 252 kts 193°
2026-05-04 13:49 4.20783 73.57871 3994 ft 251 kts 193°
2026-05-04 13:49 4.19065 73.57554 4003 ft 252 kts 193°
2026-05-04 13:49 4.17357 73.57239 3992 ft 253 kts 193°
2026-05-04 13:50 4.15603 73.56916 3998 ft 254 kts 193°
2026-05-04 13:50 4.13882 73.56601 4003 ft 254 kts 193°
2026-05-04 13:50 4.12143 73.56281 4005 ft 254 kts 193°
2026-05-04 13:50 4.10409 73.55963 3997 ft 253 kts 193°
2026-05-04 13:51 4.08684 73.55647 4001 ft 252 kts 193°
2026-05-04 13:51 4.06960 73.55332 3997 ft 252 kts 193°
2026-05-04 13:51 4.05234 73.55016 4002 ft 252 kts 193°
2026-05-04 13:51 4.03512 73.54700 4004 ft 252 kts 193°
2026-05-04 13:52 4.00066 73.54069 4002 ft 251 kts 193°
2026-05-04 13:52 3.98343 73.53792 4000 ft 250 kts 186°
2026-05-04 13:52 3.96589 73.53851 4007 ft 253 kts 179°
2026-05-04 13:53 3.94842 73.54006 3995 ft 256 kts 178°
2026-05-04 13:53 3.93064 73.54175 4011 ft 259 kts 177°
2026-05-04 13:53 3.91324 73.54575 3994 ft 260 kts 154°
2026-05-04 13:54 3.88906 73.57278 3993 ft 262 kts 136°
2026-05-04 13:54 3.87582 73.58544 3689 ft 265 kts 141°
2026-05-04 13:54 3.84694 73.60742 3342 ft 252 kts 161°
2026-05-04 13:55 3.83018 73.60922 3302 ft 239 kts 193°
2026-05-04 13:55 3.80409 73.59234 3173 ft 219 kts 236°
2026-05-04 13:55 3.79790 73.57892 3072 ft 214 kts 256°
2026-05-04 13:56 3.79736 73.56431 3028 ft 209 kts 277°
2026-05-04 13:56 3.80245 73.55070 3005 ft 211 kts 300°
2026-05-04 13:56 3.82604 73.53438 3003 ft 217 kts 347°
2026-05-04 13:57 3.84104 73.53247 3016 ft 216 kts 351°
2026-05-04 13:57 3.85604 73.53151 3007 ft 217 kts 354°
2026-05-04 13:58 3.90159 73.53100 3003 ft 218 kts 356°
2026-05-04 13:58 3.93214 73.53099 2999 ft 220 kts 357°
2026-05-04 13:58 3.94729 73.53099 3006 ft 221 kts 356°
2026-05-04 13:59 3.96272 73.53101 2997 ft 219 kts 356°
2026-05-04 13:59 3.97757 73.53101 2990 ft 208 kts 357°
2026-05-04 13:59 4.00572 73.53101 2983 ft 200 kts 356°
2026-05-04 14:00 4.01967 73.53100 2990 ft 201 kts 355°
2026-05-04 14:00 4.04750 73.53101 2643 ft 197 kts 355°
2026-05-04 14:00 4.06074 73.53102 2365 ft 181 kts 355°
2026-05-04 14:01 4.07259 73.53103 2137 ft 158 kts 355°
2026-05-04 14:01 4.08331 73.53101 1962 ft 157 kts 355°
2026-05-04 14:01 4.10545 73.53099 1558 ft 158 kts 356°
2026-05-04 14:02 4.11644 73.53100 1339 ft 157 kts 355°
2026-05-04 14:02 4.12727 73.53101 1123 ft 156 kts 354°
2026-05-04 14:02 4.13817 73.53098 963 ft 159 kts 356°
2026-05-04 14:02 4.14918 73.53100 719 ft 154 kts 355°
2026-05-04 14:03 4.16002 73.53099 573 ft 156 kts 358°
2026-05-04 14:03 4.17067 73.53102 355 ft 148 kts
2026-05-04 14:03 4.18087 73.53107 148 ft 147 kts 358°
2026-05-04 14:03 4.19101 73.53112 26 ft 141 kts 358°
2026-05-04 14:04 4.20347 73.53092 19 ft 7 kts 323°
2026-05-04 14:04 4.20367 73.53029 19 ft 15 kts 269°
2026-05-04 14:04 4.20349 73.52915 20 ft 17 kts 230°
2026-05-04 14:05 4.20289 73.52897 18 ft 2 kts 183°
2026-05-04 14:05 4.20262 73.52896 18 ft 6 kts 181°
2026-05-04 14:05 4.20199 73.52896 18 ft 13 kts 179°
2026-05-04 14:06 4.20077 73.52899 18 ft 22 kts 178°
2026-05-04 14:06 4.19896 73.52903 18 ft 30 kts 179°
2026-05-04 14:06 4.19657 73.52907 18 ft 37 kts 179°
2026-05-04 14:06 4.19403 73.52911 19 ft 36 kts 178°
2026-05-04 14:07 4.19162 73.52917 19 ft 31 kts 179°
2026-05-04 14:07 4.19042 73.52898 20 ft 12 kts 232°
2026-05-04 14:07 4.18981 73.52852 19 ft 12 kts 181°
2026-05-04 14:07 4.18894 73.52854 19 ft 13 kts 179°
2026-05-04 14:08 4.18803 73.52856 19 ft 13 kts 179°
2026-05-04 14:08 4.18715 73.52856 19 ft 10 kts 180°
2026-05-04 14:08 4.18671 73.52838 19 ft 7 kts 255°
2026-05-04 14:08 4.18671 73.52804 19 ft 2 kts 269°
2026-05-04 14:09 4.18671 73.52802 19 ft 0 kts 269°